[[{"header":{"parameterUnit":"m.s-1","parameterCategory":2,"la1":30.2991,"la2":30.254,"lo1":-89.0895,"lo2":-89.0444,"dy":0.0017,"dx":0.0017,"nx":28,"ny":28,"refTime":"2025-01-25T03:00:00:Z","depth":"0","parameterNumber":2,"parameterNumberName":"U-component_of_CURRENTS"},"data":[0,0,0,0,0,0,0,0,0,0,0,0,0,0,0,0,0,0,0,0,0,0,0,0,0,0,0,0,0,0,0,0,0,0,0,0,0,0,0,0,0,0,0,0,0,0,0,0,0,0,0,0,0,0,0,0,0,0,-0.2638,-0.2638,0,-0.2603,-0.2603,-0.2603,-0.2556,-0.2556,-0.2555,-0.2554,-0.2542,-0.2542,-0.2542,0,0,0,0,0,0,0,0,0,0,0,0,0,-0.2647,-0.2647,-0.2638,-0.2638,-0.2637,-0.2603,-0.2603,-0.2602,-0.2557,-0.2556,-0.2555,-0.2554,-0.2542,-0.2542,-0.2542,0,0,0,0,0,0,0,0,0,0,0,0,0,-0.263,-0.2647,-0.2638,-0.2611,-0.2608,-0.2604,-0.2603,-0.2602,-0.2557,-0.2556,-0.2555,-0.2554,-0.2541,-0.2542,-0.2542,-0.2567,0,0,-0.2544,-0.2544,0,0,0,0,0,0,0,0,-0.2631,-0.263,-0.2615,-0.2613,-0.261,-0.2584,-0.2601,-0.2592,-0.2557,-0.2576,-0.2554,-0.2553,-0.2559,-0.2558,-0.2553,-0.2566,-0.2566,-0.2544,-0.2544,-0.2544,-0.2545,0,0,0,0,0,0,0,-0.2633,-0.2631,-0.2624,-0.2615,-0.2611,-0.2594,-0.2591,-0.2599,-0.2574,-0.2574,-0.2571,-0.2568,-0.2557,-0.2552,-0.2552,-0.2565,-0.2544,-0.2544,-0.2545,-0.2545,-0.2585,-0.2586,0,0,0,0,0,0,-0.264,-0.2633,-0.2625,-0.2623,-0.2619,-0.2595,-0.2591,-0.2593,-0.2573,-0.2569,-0.2569,-0.2566,-0.2552,-0.2552,-0.2552,-0.2559,-0.2544,-0.2545,-0.2545,-0.2584,-0.2585,-0.2586,0,0,0,0,0,0,-0.2641,-0.264,-0.2626,-0.2627,-0.2624,-0.2596,-0.2598,-0.2592,-0.2583,-0.2569,-0.2565,-0.2565,-0.2551,-0.2551,-0.2564,-0.2559,-0.2545,-0.2546,-0.2583,-0.2585,-0.2586,-0.2587,0,0,0,0,0,0,-0.2641,-0.2641,-0.2645,-0.2628,-0.2624,-0.2617,-0.2599,-0.2593,-0.2584,-0.2579,-0.2565,-0.2562,-0.255,-0.2564,-0.2565,-0.2559,-0.2546,-0.2582,-0.2584,-0.2585,-0.2586,-0.2588,-0.2589,0,0,0,0,0,-0.2642,-0.2643,-0.2646,-0.2645,-0.2632,-0.2617,-0.2613,-0.2589,-0.2585,-0.2578,-0.258,-0.2563,-0.2573,-0.2565,-0.2566,-0.256,-0.2582,-0.2583,-0.2585,-0.2585,-0.2587,-0.2589,0,0,0,0,0,0,-0.2648,-0.2639,-0.2641,-0.264,-0.263,-0.2609,-0.26,-0.2595,-0.2591,-0.2588,-0.2579,-0.2578,-0.2587,-0.2583,-0.2574,-0.2578,-0.2572,-0.2574,-0.2572,-0.2574,-0.2576,-0.2561,-0.2546,0,0,0,0,0,-0.2656,-0.2652,-0.2645,-0.2643,-0.264,-0.2626,-0.2619,-0.2606,-0.2599,-0.2595,-0.259,-0.259,-0.2597,-0.2593,-0.2598,-0.2604,-0.2582,-0.2601,-0.2603,-0.2604,-0.2595,-0.258,-0.2579,-0.2592,-0.2592,-0.2592,0,0,-0.2654,-0.2651,-0.2647,-0.2644,-0.2633,-0.2629,-0.2618,-0.2604,-0.2602,-0.2598,-0.2596,-0.2602,-0.2605,-0.2608,-0.261,-0.26,-0.2586,-0.2606,-0.2607,-0.2597,-0.2581,-0.258,-0.2578,-0.2593,-0.2593,-0.2593,0,0,-0.2643,-0.2651,-0.2641,-0.264,-0.2631,-0.2627,-0.2627,-0.2614,-0.2607,-0.2617,-0.2613,-0.2619,-0.2628,-0.262,-0.2621,-0.2641,-0.2605,-0.2642,-0.2627,-0.2613,-0.2611,-0.2609,-0.2561,-0.2555,-0.2632,-0.2632,-0.2632,0,-0.2642,-0.2631,-0.2636,-0.2633,-0.2625,-0.263,-0.2618,-0.2623,-0.2616,-0.2609,-0.2616,-0.2623,-0.2632,-0.2624,-0.2632,-0.2642,-0.2617,-0.2615,-0.2613,-0.2611,-0.2609,-0.256,-0.2553,-0.2633,-0.2632,-0.2632,-0.2632,0,-0.2622,-0.2619,-0.2613,-0.2613,-0.2614,-0.2599,-0.2611,-0.2611,-0.2616,-0.2615,-0.2614,-0.2626,-0.2619,-0.263,-0.2641,-0.2627,-0.2606,-0.2623,-0.2601,-0.2607,-0.2556,-0.2548,-0.2633,-0.2633,-0.2633,-0.2633,0,0,-0.2588,-0.2595,-0.2592,-0.2583,-0.2596,-0.2586,-0.2599,-0.2593,-0.2583,-0.2598,-0.2577,-0.2607,-0.2602,-0.2604,-0.2609,-0.2602,-0.2574,-0.2605,-0.2604,-0.2545,-0.251,-0.2328,-0.2303,-0.2588,-0.2587,-0.2587,-0.2472,0,-0.256,-0.2548,-0.2561,-0.2543,-0.2531,-0.2549,-0.2555,-0.2561,-0.2568,-0.2558,-0.2571,-0.2563,-0.2596,-0.2583,-0.2586,-0.2587,-0.2558,-0.2601,-0.2523,-0.252,-0.2348,-0.2289,-0.2179,-0.2052,-0.2465,-0.2463,-0.2463,0,-0.2518,-0.2517,-0.2498,-0.2492,-0.2488,-0.2487,-0.2478,-0.2485,-0.2495,-0.2496,-0.2496,-0.2506,-0.2503,-0.2532,-0.251,-0.2534,-0.2516,-0.2513,-0.2509,-0.2331,-0.2324,-0.2118,-0.2024,-0.1863,-0.2451,-0.2452,-0.2453,0,-0.2462,-0.246,-0.244,-0.244,-0.245,-0.2439,-0.2444,-0.2457,-0.2447,-0.2448,-0.2431,-0.2441,-0.2422,-0.2431,-0.242,-0.2467,-0.2374,-0.2439,-0.2247,-0.2234,-0.2116,-0.2092,-0.1844,-0.2399,-0.2399,-0.24,-0.24,0,-0.2404,-0.2379,-0.241,-0.2394,-0.2362,-0.2392,-0.2358,-0.2368,-0.2371,-0.234,-0.2385,-0.2345,-0.2398,-0.2356,-0.2375,-0.2249,-0.2328,-0.2208,-0.218,-0.211,-0.2087,-0.1925,-0.1919,-0.2395,-0.2396,-0.2397,-0.2398,0,-0.2316,-0.2344,-0.2314,-0.2328,-0.2329,-0.2303,-0.2299,-0.2275,-0.2294,-0.2251,-0.2245,-0.2254,-0.2188,-0.2193,-0.2173,-0.214,-0.1997,-0.2014,-0.1897,-0.1856,-0.1523,-0.1523,-0.1436,-0.1412,-0.1788,-0.1783,-0.1778,0,-0.2256,-0.2237,-0.2254,-0.2234,-0.2229,-0.221,-0.2192,-0.2223,-0.2199,-0.218,-0.2143,-0.2077,-0.2001,-0.187,-0.1799,-0.1713,-0.1761,-0.1548,-0.1616,-0.1428,-0.1414,-0.1575,-0.1578,-0.1472,-0.1466,-0.146,-0.1456,0,-0.2123,-0.2143,-0.2127,-0.2107,-0.2085,-0.2069,-0.205,-0.2028,-0.205,-0.2018,-0.1945,-0.1886,-0.1728,-0.1565,-0.1415,-0.1377,-0.1453,-0.1427,-0.1288,-0.1154,-0.1266,-0.1254,-0.1611,-0.1407,-0.1412,-0.1416,-0.1418,-0.142,-0.2004,-0.1972,-0.1966,-0.1929,-0.1928,-0.1902,-0.1841,-0.1844,-0.1795,-0.1712,-0.1744,-0.1603,-0.1417,-0.1182,-0.1081,-0.0799,-0.1055,-0.0774,-0.0794,-0.0978,-0.0927,-0.1124,-0.0854,-0.0855,-0.0857,-0.0858,-0.0859,0,-0.1811,-0.1804,-0.1777,-0.1736,-0.1691,-0.1747,-0.1712,-0.1637,-0.1544,-0.1504,-0.1427,-0.1197,-0.0943,-0.0756,-0.0438,-0.0236,-0.0366,-0.016,-0.0371,-0.0411,-0.0582,-0.0527,-0.0105,-0.0105,-0.0105,-0.0106,-0.0106,-0.0106,-0.1701,-0.1617,-0.1617,-0.1495,-0.1485,-0.1383,-0.1345,-0.1278,-0.1221,-0.1047,-0.0922,-0.0855,-0.0565,-0.0186,0.0164,0.0214,0.0153,0.0169,0.0106,0.0045,-0.0017,-0.0075,-0.0015,0.0507,0.0507,0.022,0.0219,0.0219]},{"header":{"parameterUnit":"m.s-1","parameterCategory":2,"la1":30.2991,"la2":30.254,"lo1":-89.0895,"lo2":-89.0444,"dy":0.0017,"dx":0.0017,"nx":28,"ny":28,"refTime":"2025-01-25T03:00:00:Z","depth":"0","parameterNumber":3,"parameterNumberName":"V-component_of_CURRENTS"},"data":[0,0,0,0,0,0,0,0,0,0,0,0,0,0,0,0,0,0,0,0,0,0,0,0,0,0,0,0,0,0,0,0,0,0,0,0,0,0,0,0,0,0,0,0,0,0,0,0,0,0,0,0,0,0,0,0,0,0,-0.1253,-0.1253,0,-0.1176,-0.1175,-0.1173,-0.1078,-0.1077,-0.1076,-0.1076,-0.0889,-0.0884,-0.088,0,0,0,0,0,0,0,0,0,0,0,0,0,-0.1124,-0.1127,-0.1253,-0.1253,-0.1253,-0.1177,-0.1175,-0.1173,-0.1078,-0.1077,-0.1076,-0.1075,-0.089,-0.0885,-0.088,0,0,0,0,0,0,0,0,0,0,0,0,0,-0.1119,-0.1128,-0.1253,-0.1202,-0.1198,-0.1177,-0.1175,-0.1172,-0.1078,-0.1077,-0.1076,-0.1075,-0.0892,-0.0885,-0.0879,-0.0862,0,0,-0.0859,-0.0857,0,0,0,0,0,0,0,0,-0.112,-0.1123,-0.121,-0.1206,-0.1201,-0.1143,-0.1061,-0.1066,-0.1078,-0.1115,-0.1076,-0.1074,-0.097,-0.0957,-0.0934,-0.0853,-0.0845,-0.0859,-0.0855,-0.0852,-0.085,0,0,0,0,0,0,0,-0.1121,-0.1125,-0.1214,-0.121,-0.1204,-0.1118,-0.1117,-0.106,-0.1041,-0.1111,-0.1106,-0.1112,-0.0965,-0.0941,-0.0929,-0.0842,-0.0859,-0.0853,-0.0849,-0.0847,-0.0764,-0.0765,0,0,0,0,0,0,-0.116,-0.1127,-0.1217,-0.1213,-0.1166,-0.1123,-0.1121,-0.1156,-0.1044,-0.1029,-0.1113,-0.1108,-0.0952,-0.0937,-0.0922,-0.0906,-0.0852,-0.0846,-0.0843,-0.0762,-0.0764,-0.0766,0,0,0,0,0,0,-0.1157,-0.1169,-0.122,-0.1172,-0.1173,-0.1128,-0.1166,-0.1155,-0.1133,-0.1047,-0.1028,-0.1104,-0.0951,-0.0931,-0.0892,-0.0897,-0.0843,-0.0837,-0.076,-0.0762,-0.0765,-0.0865,0,0,0,0,0,0,-0.1155,-0.117,-0.1196,-0.1177,-0.1178,-0.1212,-0.1168,-0.1155,-0.1142,-0.1134,-0.1034,-0.1015,-0.0949,-0.0903,-0.0886,-0.0887,-0.0832,-0.0758,-0.0761,-0.0764,-0.086,-0.0871,-0.088,0,0,0,0,0,-0.1151,-0.1191,-0.1199,-0.1209,-0.1222,-0.1214,-0.1205,-0.1161,-0.1144,-0.1135,-0.1085,-0.1018,-0.091,-0.0899,-0.0879,-0.0878,-0.0756,-0.076,-0.0764,-0.0855,-0.0869,-0.088,0,0,0,0,0,0,-0.1133,-0.1185,-0.1193,-0.1245,-0.1237,-0.1201,-0.1193,-0.1174,-0.1127,-0.112,-0.1036,-0.1014,-0.0981,-0.0928,-0.0918,-0.0869,-0.0824,-0.0823,-0.09,-0.0912,-0.0922,-0.0932,-0.0827,0,0,0,0,0,-0.1154,-0.1203,-0.1221,-0.1256,-0.1263,-0.1234,-0.1224,-0.1202,-0.1168,-0.1146,-0.1085,-0.1027,-0.0981,-0.0948,-0.0895,-0.0866,-0.0838,-0.0857,-0.0867,-0.0876,-0.0874,-0.0861,-0.0869,-0.0778,-0.0778,-0.0778,0,0,-0.1151,-0.119,-0.1213,-0.1256,-0.1245,-0.1249,-0.1222,-0.1219,-0.1212,-0.1133,-0.11,-0.1057,-0.0985,-0.0953,-0.0933,-0.0907,-0.0892,-0.0881,-0.0888,-0.0881,-0.0865,-0.0874,-0.0882,-0.078,-0.078,-0.0779,0,0,-0.1157,-0.1215,-0.1246,-0.1256,-0.1272,-0.1261,-0.1271,-0.1252,-0.1235,-0.1214,-0.1162,-0.114,-0.1053,-0.1016,-0.0983,-0.1023,-0.095,-0.0999,-0.1047,-0.1035,-0.1042,-0.1048,-0.1044,-0.1048,-0.1,-0.1,-0.1001,0,-0.1139,-0.1203,-0.1243,-0.1267,-0.1275,-0.1276,-0.1283,-0.1274,-0.124,-0.1235,-0.1214,-0.1139,-0.1085,-0.1058,-0.1071,-0.1044,-0.1024,-0.1003,-0.1048,-0.1053,-0.1057,-0.1051,-0.1054,-0.1006,-0.1005,-0.1005,-0.1004,0,-0.116,-0.1208,-0.1225,-0.1271,-0.1282,-0.1292,-0.1304,-0.1306,-0.1297,-0.1283,-0.1269,-0.1219,-0.1171,-0.1161,-0.1119,-0.1124,-0.1098,-0.1066,-0.1016,-0.1072,-0.1062,-0.1065,-0.1013,-0.1011,-0.101,-0.1008,0,0,-0.1106,-0.1218,-0.1218,-0.1245,-0.129,-0.1294,-0.1316,-0.1327,-0.1329,-0.1321,-0.1315,-0.1281,-0.1267,-0.1232,-0.1194,-0.1189,-0.1215,-0.1142,-0.1139,-0.1137,-0.1191,-0.1129,-0.1125,-0.1184,-0.1184,-0.1185,-0.118,0,-0.1092,-0.1154,-0.1212,-0.124,-0.1267,-0.1302,-0.1315,-0.1331,-0.1334,-0.1331,-0.1328,-0.1298,-0.129,-0.1263,-0.127,-0.1211,-0.122,-0.1219,-0.1136,-0.1134,-0.1071,-0.1125,-0.1112,-0.1101,-0.1181,-0.1181,-0.1181,0,-0.1073,-0.1126,-0.1168,-0.1244,-0.1256,-0.1268,-0.1299,-0.1313,-0.1335,-0.1337,-0.1347,-0.1329,-0.133,-0.1308,-0.1286,-0.128,-0.1251,-0.1222,-0.122,-0.1124,-0.1076,-0.1053,-0.1101,-0.0954,-0.1184,-0.1184,-0.1183,0,-0.1003,-0.1086,-0.1125,-0.1148,-0.1228,-0.1244,-0.1273,-0.1305,-0.1315,-0.1334,-0.133,-0.1345,-0.1322,-0.1314,-0.1269,-0.1271,-0.1234,-0.1224,-0.1155,-0.1151,-0.1102,-0.1092,-0.0993,-0.1222,-0.1222,-0.1222,-0.1222,0,-0.0967,-0.099,-0.1096,-0.1112,-0.1143,-0.1205,-0.1221,-0.1254,-0.1282,-0.1293,-0.1321,-0.1319,-0.1318,-0.1298,-0.1277,-0.1218,-0.1244,-0.1172,-0.1146,-0.1139,-0.1132,-0.0969,-0.0875,-0.1221,-0.1222,-0.1222,-0.1222,0,-0.0882,-0.0957,-0.1002,-0.109,-0.1115,-0.1129,-0.1196,-0.1212,-0.1237,-0.125,-0.1253,-0.1283,-0.1271,-0.1264,-0.1231,-0.1201,-0.1069,-0.1132,-0.1128,-0.11,-0.09,-0.0812,-0.0694,-0.0603,-0.1072,-0.107,-0.1069,0,-0.0852,-0.0869,-0.0966,-0.1002,-0.1043,-0.1084,-0.112,-0.1176,-0.1198,-0.1227,-0.1232,-0.1227,-0.1243,-0.1184,-0.1147,-0.1113,-0.0996,-0.1031,-0.1034,-0.0887,-0.077,-0.0741,-0.067,-0.1027,-0.1025,-0.1024,-0.1023,0,-0.0785,-0.0818,-0.0867,-0.0939,-0.099,-0.1044,-0.1098,-0.1111,-0.1172,-0.1189,-0.1214,-0.1227,-0.1196,-0.1168,-0.1095,-0.1053,-0.0893,-0.1001,-0.0853,-0.0727,-0.0683,-0.0583,-0.1033,-0.1012,-0.1013,-0.1014,-0.1014,-0.1015,-0.0727,-0.0749,-0.0821,-0.0881,-0.0945,-0.1004,-0.1025,-0.1094,-0.1129,-0.1174,-0.1204,-0.1225,-0.1151,-0.1077,-0.1,-0.078,-0.0801,-0.0716,-0.0627,-0.0617,-0.0501,-0.092,-0.0853,-0.0854,-0.0854,-0.0854,-0.0854,0,-0.0663,-0.071,-0.0766,-0.0847,-0.0891,-0.0945,-0.1012,-0.1025,-0.1068,-0.1149,-0.1191,-0.1136,-0.1037,-0.0892,-0.0654,-0.0463,-0.0415,-0.0324,-0.0284,-0.0233,-0.0618,-0.0586,-0.045,-0.045,-0.0451,-0.0451,-0.0451,-0.0451,-0.0638,-0.0675,-0.0715,-0.0775,-0.0827,-0.0864,-0.0893,-0.0929,-0.0974,-0.1012,-0.1024,-0.1036,-0.075,-0.0469,-0.015,-0.0083,0.0117,0.0118,0.0239,-0.0021,-0.0052,-0.0081,-0.0031,0.0219,0.022,0.0562,0.0566,0.0569]}],[{"header":{"parameterUnit":"m.s-1","parameterCategory":2,"la1":30.2991,"la2":30.254,"lo1":-89.0895,"lo2":-89.0444,"dy":0.0017,"dx":0.0017,"nx":28,"ny":28,"refTime":"2025-01-25T03:00:00:Z","depth":"2","parameterNumber":2,"parameterNumberName":"U-component_of_CURRENTS"},"data":[0,0,0,0,0,0,0,0,0,0,0,0,0,0,0,0,0,0,0,0,0,0,0,0,0,0,0,0,0,0,0,0,0,0,0,0,0,0,0,0,0,0,0,0,0,0,0,0,0,0,0,0,0,0,0,0,0,0,-0.1794,-0.1794,0,-0.1938,-0.1941,-0.1944,-0.2013,-0.2011,-0.201,-0.2008,-0.2273,-0.2281,-0.229,0,0,0,0,0,0,0,0,0,0,0,0,0,-0.1824,-0.1824,-0.1794,-0.1794,-0.1794,-0.1937,-0.1941,-0.1945,-0.2013,-0.2011,-0.2009,-0.2007,-0.227,-0.228,-0.2291,0,0,0,0,0,0,0,0,0,0,0,0,0,-0.1891,-0.1823,-0.1794,-0.1832,-0.1835,-0.1936,-0.1941,-0.1946,-0.2014,-0.2011,-0.2009,-0.2006,-0.2267,-0.2279,-0.2292,-0.2425,0,0,-0.2332,-0.2338,0,0,0,0,0,0,0,0,-0.1887,-0.1892,-0.1826,-0.1829,-0.1833,-0.1938,-0.2048,-0.2106,-0.2015,-0.1966,-0.2008,-0.2005,-0.2162,-0.2184,-0.2241,-0.2438,-0.2449,-0.2333,-0.2341,-0.2347,-0.235,0,0,0,0,0,0,0,-0.1882,-0.1888,-0.187,-0.1826,-0.183,-0.1924,-0.1931,-0.2062,-0.2094,-0.197,-0.1971,-0.1958,-0.2167,-0.2229,-0.2248,-0.2453,-0.2333,-0.2344,-0.2352,-0.2357,-0.2624,-0.2623,0,0,0,0,0,0,-0.1816,-0.1882,-0.1865,-0.1872,-0.1833,-0.1924,-0.1932,-0.1922,-0.209,-0.2106,-0.196,-0.196,-0.2208,-0.2233,-0.2257,-0.235,-0.2346,-0.2359,-0.2366,-0.2625,-0.2624,-0.2623,0,0,0,0,0,0,-0.1817,-0.1814,-0.1858,-0.1866,-0.1875,-0.1922,-0.1914,-0.1926,-0.1964,-0.2077,-0.2099,-0.1978,-0.2207,-0.2239,-0.2359,-0.2362,-0.2365,-0.2376,-0.2625,-0.2624,-0.2623,-0.2582,0,0,0,0,0,0,-0.1818,-0.1814,-0.1808,-0.1861,-0.1871,-0.1877,-0.1914,-0.193,-0.1952,-0.1955,-0.2102,-0.2124,-0.2207,-0.2339,-0.2372,-0.238,-0.2387,-0.2626,-0.2625,-0.2624,-0.2584,-0.258,-0.2576,0,0,0,0,0,-0.1819,-0.1811,-0.1807,-0.1805,-0.1854,-0.1874,-0.1892,-0.1931,-0.1955,-0.1962,-0.2074,-0.2119,-0.235,-0.2352,-0.239,-0.2402,-0.2627,-0.2625,-0.2624,-0.2586,-0.2581,-0.2576,0,0,0,0,0,0,-0.1813,-0.1817,-0.1814,-0.1805,-0.1812,-0.1878,-0.1906,-0.1924,-0.2026,-0.2063,-0.2157,-0.219,-0.2278,-0.2347,-0.2344,-0.2462,-0.2478,-0.2484,-0.2436,-0.2432,-0.2428,-0.245,-0.2397,0,0,0,0,0,-0.1805,-0.1814,-0.1808,-0.1805,-0.1809,-0.186,-0.1882,-0.1914,-0.199,-0.2032,-0.2149,-0.2252,-0.231,-0.2373,-0.2462,-0.2573,-0.2565,-0.2584,-0.258,-0.2576,-0.2613,-0.2558,-0.2552,-0.2617,-0.2617,-0.2617,0,0,-0.1815,-0.1806,-0.1819,-0.1806,-0.1842,-0.1889,-0.1873,-0.1916,-0.1972,-0.2054,-0.2216,-0.226,-0.233,-0.2427,-0.2471,-0.2488,-0.2547,-0.2574,-0.2571,-0.2611,-0.2556,-0.255,-0.2544,-0.2616,-0.2616,-0.2617,0,0,-0.1866,-0.1819,-0.187,-0.1861,-0.1881,-0.1916,-0.191,-0.1994,-0.2034,-0.2166,-0.2202,-0.2248,-0.2424,-0.2446,-0.2473,-0.2503,-0.2514,-0.2512,-0.2541,-0.2485,-0.2479,-0.2474,-0.2426,-0.2417,-0.2523,-0.2523,-0.2523,0,-0.1902,-0.1928,-0.1884,-0.1915,-0.1924,-0.192,-0.1982,-0.2024,-0.2148,-0.2185,-0.2211,-0.2368,-0.2427,-0.2457,-0.2467,-0.2496,-0.2471,-0.2556,-0.2479,-0.2474,-0.247,-0.2422,-0.2413,-0.2521,-0.2521,-0.2521,-0.2521,0,-0.1994,-0.2007,-0.2026,-0.2073,-0.2064,-0.2114,-0.2119,-0.2183,-0.2241,-0.2278,-0.2337,-0.2402,-0.2466,-0.2467,-0.2504,-0.2486,-0.2477,-0.2464,-0.2491,-0.2461,-0.2412,-0.2403,-0.2517,-0.2518,-0.2519,-0.2519,0,0,-0.2141,-0.2118,-0.2144,-0.2131,-0.2154,-0.2147,-0.2232,-0.2278,-0.2292,-0.2397,-0.2415,-0.2496,-0.2479,-0.2505,-0.2498,-0.2484,-0.242,-0.2484,-0.2482,-0.2438,-0.2301,-0.2146,-0.2122,-0.2386,-0.2385,-0.2385,-0.2267,0,-0.2267,-0.2334,-0.2309,-0.2362,-0.2363,-0.2344,-0.2382,-0.2398,-0.2422,-0.2441,-0.2437,-0.2451,-0.249,-0.2482,-0.2472,-0.2436,-0.2402,-0.2454,-0.234,-0.2338,-0.2203,-0.2108,-0.1938,-0.1807,-0.2259,-0.2257,-0.2256,0,-0.2391,-0.2394,-0.2472,-0.2413,-0.2421,-0.2451,-0.2445,-0.248,-0.2465,-0.2472,-0.2473,-0.2446,-0.244,-0.2443,-0.2392,-0.2424,-0.2375,-0.2346,-0.2339,-0.2218,-0.2167,-0.1917,-0.1774,-0.2242,-0.2243,-0.2244,-0.2245,0,-0.2448,-0.2499,-0.255,-0.2536,-0.2496,-0.2519,-0.2526,-0.2503,-0.2486,-0.2461,-0.2428,-0.2416,-0.2369,-0.2347,-0.2301,-0.2341,-0.2212,-0.2234,-0.2045,-0.2034,-0.1883,-0.1858,-0.2166,-0.2166,-0.2167,-0.2167,-0.2167,0,-0.255,-0.2569,-0.2564,-0.2554,-0.255,-0.252,-0.251,-0.2508,-0.2474,-0.2406,-0.2413,-0.2332,-0.2342,-0.2265,-0.226,-0.2109,-0.2159,-0.2037,-0.1982,-0.1858,-0.1834,-0.2226,-0.2235,-0.2163,-0.2164,-0.2165,-0.2165,0,-0.2559,-0.2604,-0.2571,-0.2556,-0.2546,-0.2517,-0.2474,-0.2449,-0.2433,-0.2341,-0.2324,-0.2255,-0.2144,-0.2121,-0.2039,-0.1998,-0.1909,-0.1834,-0.1692,-0.162,-0.1791,-0.1799,-0.1626,-0.1619,-0.1614,-0.1609,-0.1605,0,-0.2572,-0.2558,-0.252,-0.2487,-0.2476,-0.2445,-0.2415,-0.2419,-0.2372,-0.2266,-0.2202,-0.2078,-0.1925,-0.175,-0.166,-0.1556,-0.1695,-0.1342,-0.1382,-0.1765,-0.173,-0.1747,-0.1762,-0.1164,-0.1157,-0.1151,-0.1146,0,-0.2488,-0.2477,-0.2442,-0.2382,-0.2352,-0.2315,-0.2278,-0.2232,-0.2207,-0.2099,-0.1924,-0.1798,-0.1601,-0.1383,-0.1245,-0.1172,-0.1358,-0.1213,-0.1606,-0.1322,-0.1317,-0.1287,-0.132,-0.1093,-0.1098,-0.1102,-0.1105,-0.1107,-0.2377,-0.233,-0.2282,-0.2216,-0.2196,-0.2148,-0.2075,-0.2025,-0.1898,-0.1718,-0.1683,-0.1458,-0.1348,-0.1044,-0.0916,-0.0821,-0.0936,-0.0908,-0.0931,-0.096,-0.0922,-0.0907,-0.06,-0.0602,-0.0604,-0.0606,-0.0607,0,-0.2193,-0.2159,-0.2105,-0.2028,-0.1983,-0.2013,-0.1939,-0.1826,-0.162,-0.1529,-0.1352,-0.1065,-0.0847,-0.0786,-0.0546,-0.0445,-0.0494,-0.0415,-0.0519,-0.0565,-0.0609,-0.0563,-0.0139,-0.0139,-0.0139,-0.0138,0,0,-0.2083,-0.1985,-0.1974,-0.1831,-0.1787,-0.167,-0.1607,-0.1428,-0.1333,-0.1091,-0.0978,-0.0966,-0.0847,-0.0611,-0.0438,-0.0291,-0.0464,-0.0237,-0.0598,-0.0775,-0.0822,-0.0843,-0.0815,0,0,0,0,0]},{"header":{"parameterUnit":"m.s-1","parameterCategory":2,"la1":30.2991,"la2":30.254,"lo1":-89.0895,"lo2":-89.0444,"dy":0.0017,"dx":0.0017,"nx":28,"ny":28,"refTime":"2025-01-25T03:00:00:Z","depth":"2","parameterNumber":3,"parameterNumberName":"V-component_of_CURRENTS"},"data":[0,0,0,0,0,0,0,0,0,0,0,0,0,0,0,0,0,0,0,0,0,0,0,0,0,0,0,0,0,0,0,0,0,0,0,0,0,0,0,0,0,0,0,0,0,0,0,0,0,0,0,0,0,0,0,0,0,0,-0.0248,-0.0248,0,-0.0192,-0.0192,-0.0191,-0.0142,-0.0142,-0.0141,-0.0141,0.0199,0.0208,0.0216,0,0,0,0,0,0,0,0,0,0,0,0,0,-0.0293,-0.0293,-0.0248,-0.0248,-0.0247,-0.0193,-0.0192,-0.019,-0.0142,-0.0142,-0.0141,-0.0141,0.0196,0.0207,0.0217,0,0,0,0,0,0,0,0,0,0,0,0,0,-0.0256,-0.0292,-0.0248,-0.0219,-0.0216,-0.0193,-0.0191,-0.019,-0.0142,-0.0142,-0.0141,-0.0141,0.0193,0.0206,0.0219,0.0292,0,0,0.0259,0.0265,0,0,0,0,0,0,0,0,-0.0259,-0.0254,-0.0224,-0.0221,-0.0218,-0.0176,-0.0083,-0.0016,-0.0142,-0.0167,-0.0141,-0.0141,0.0098,0.0119,0.0129,0.0308,0.0323,0.026,0.0268,0.0274,0.0278,0,0,0,0,0,0,0,-0.0261,-0.0256,-0.0223,-0.0223,-0.022,-0.0202,-0.0196,-0.0071,-0.003,-0.0165,-0.0162,-0.0161,0.0102,0.0115,0.0138,0.0328,0.026,0.0272,0.028,0.0285,0.063,0.0631,0,0,0,0,0,0,-0.0276,-0.0259,-0.0225,-0.0222,-0.0241,-0.0202,-0.0195,-0.0187,-0.0037,-0.0017,-0.0161,-0.0159,0.0093,0.0122,0.015,0.0258,0.0274,0.0286,0.0294,0.0629,0.063,0.0632,0,0,0,0,0,0,-0.0277,-0.0273,-0.0227,-0.0242,-0.0235,-0.0202,-0.0194,-0.0187,-0.0171,-0.0038,-0.0012,-0.0153,0.0094,0.0132,0.0248,0.0272,0.0292,0.0304,0.0627,0.0629,0.0631,0.0469,0,0,0,0,0,0,-0.0278,-0.0274,-0.0268,-0.0243,-0.0235,-0.0222,-0.0194,-0.0186,-0.0172,-0.0168,-0.0021,0.0009,0.0097,0.0228,0.0261,0.0291,0.0314,0.0626,0.0628,0.063,0.0472,0.0465,0.0458,0,0,0,0,0,-0.028,-0.0269,-0.0268,-0.0264,-0.023,-0.0223,-0.0217,-0.019,-0.0173,-0.0172,-0.0078,0.0005,0.0268,0.0238,0.0278,0.0312,0.0625,0.0627,0.063,0.0476,0.0466,0.0458,0,0,0,0,0,0,-0.0264,-0.0263,-0.0261,-0.0244,-0.0243,-0.0216,-0.0206,-0.0194,-0.0125,-0.0104,0.0015,0.0053,0.0164,0.0266,0.023,0.0421,0.0464,0.0475,0.0333,0.0326,0.0319,0.0336,0.0325,0,0,0,0,0,-0.0266,-0.0268,-0.0263,-0.025,-0.0252,-0.0232,-0.0223,-0.0209,-0.0152,-0.0125,-0.0019,0.0105,0.0207,0.0282,0.0394,0.0502,0.0541,0.0556,0.0548,0.0541,0.0585,0.0624,0.0622,0.0641,0.0641,0.0641,0,0,-0.0254,-0.0255,-0.0253,-0.025,-0.0241,-0.0241,-0.0224,-0.0213,-0.0195,-0.0088,-0.0001,0.0086,0.0228,0.0329,0.0393,0.0419,0.054,0.0545,0.0537,0.0586,0.0626,0.0624,0.0622,0.0643,0.0642,0.0642,0,0,-0.0244,-0.0237,-0.0244,-0.0253,-0.0254,-0.024,-0.0243,-0.0212,-0.0182,-0.0107,-0.0031,0.0049,0.024,0.0312,0.038,0.0412,0.0491,0.0473,0.0466,0.05,0.0498,0.0497,0.0451,0.0448,0.0479,0.0478,0.0478,0,-0.0232,-0.0232,-0.0243,-0.0258,-0.0251,-0.0244,-0.024,-0.0219,-0.0148,-0.0089,-0.0084,0.0145,0.0226,0.0347,0.0346,0.0393,0.0416,0.0469,0.0484,0.0485,0.0487,0.0442,0.044,0.0471,0.0472,0.0473,0.0473,0,-0.0235,-0.0236,-0.0238,-0.0254,-0.0253,-0.0245,-0.0232,-0.0189,-0.0143,-0.0098,0.0026,0.0103,0.0245,0.0268,0.0322,0.0397,0.0402,0.0447,0.0486,0.0473,0.0428,0.0428,0.046,0.0463,0.0465,0.0467,0,0,-0.0207,-0.0232,-0.0232,-0.0245,-0.0245,-0.0248,-0.0197,-0.0136,-0.0088,-0.0017,0.0055,0.0177,0.0219,0.0299,0.0352,0.0386,0.0343,0.0431,0.0436,0.035,0.0377,0.0354,0.0352,0.0399,0.04,0.0402,0.0304,0,-0.02,-0.0225,-0.0222,-0.0229,-0.0246,-0.0208,-0.0171,-0.0115,-0.0048,0.0021,0.0102,0.0173,0.0226,0.0256,0.0305,0.0351,0.0358,0.0364,0.0439,0.044,0.0393,0.0359,0.0486,0.0413,0.0305,0.0305,0.0305,0,-0.0216,-0.0229,-0.0244,-0.023,-0.0226,-0.0236,-0.0156,-0.0128,-0.0025,0.0039,0.0137,0.0198,0.0256,0.0272,0.035,0.0361,0.0374,0.0391,0.0388,0.0449,0.0425,0.0434,0.0419,0.0308,0.0307,0.0307,0.0307,0,-0.0242,-0.0239,-0.0249,-0.0256,-0.0246,-0.0229,-0.0217,-0.0128,-0.0095,0.0002,0.0041,0.0167,0.0165,0.0253,0.029,0.0328,0.0344,0.0384,0.0369,0.0362,0.0534,0.0542,0.0437,0.0437,0.0437,0.0438,0.0438,0,-0.0257,-0.027,-0.0283,-0.031,-0.0324,-0.0302,-0.0293,-0.0231,-0.0163,-0.0106,-0.0003,0.0058,0.017,0.0208,0.027,0.0303,0.0317,0.0372,0.0359,0.0471,0.0475,0.0473,0.0478,0.0434,0.0435,0.0435,0.0436,0,-0.032,-0.0313,-0.0358,-0.0357,-0.0371,-0.0414,-0.0416,-0.0373,-0.0312,-0.0248,-0.0231,-0.0074,-0.0009,0.0064,0.0153,0.0229,0.0279,0.0282,0.0359,0.0361,0.0272,0.0271,0.0269,0.0268,0.0267,0.0266,0.0266,0,-0.0348,-0.0386,-0.0444,-0.0479,-0.0504,-0.0551,-0.0549,-0.0487,-0.041,-0.0297,-0.0236,-0.0191,-0.0099,-0.0033,0.011,0.0166,0.0191,0.0325,0.0442,0.0278,0.0265,0.0266,0.0266,0.0557,0.0559,0.0561,0.0562,0,-0.0415,-0.0455,-0.0489,-0.0573,-0.0616,-0.062,-0.0599,-0.057,-0.0435,-0.04,-0.0281,-0.0246,-0.0136,0.0051,0.0119,0.0187,0.0336,0.0354,0.0196,0.0578,0.0544,0.0532,0.0525,0.0575,0.0574,0.0573,0.0572,0.0571,-0.0468,-0.0519,-0.0567,-0.0641,-0.0678,-0.0636,-0.0625,-0.0544,-0.0491,-0.0357,-0.0313,-0.0159,-0.002,0.0184,0.0212,0.0325,0.033,0.0473,0.0473,0.047,0.0519,0.0486,0.0509,0.0508,0.0506,0.0505,0.0504,0,-0.0493,-0.0539,-0.0607,-0.0655,-0.0665,-0.0681,-0.0588,-0.0543,-0.0482,-0.0346,-0.0298,-0.0055,0.0162,0.031,0.0532,0.055,0.0551,0.0559,0.0643,0.0635,0.0626,0.0685,0.0717,0.0716,0.0716,0.0715,0,0,-0.0505,-0.056,-0.0588,-0.0612,-0.0643,-0.0611,-0.0563,-0.0535,-0.0418,-0.0346,-0.0133,0.0023,0.029,0.0467,0.0515,0.066,0.0581,0.0626,0.048,0.0563,0.055,0.0636,0.0725,0,0,0,0,0]}],[{"header":{"parameterUnit":"m.s-1","parameterCategory":2,"la1":30.2991,"la2":30.254,"lo1":-89.0895,"lo2":-89.0444,"dy":0.0017,"dx":0.0017,"nx":28,"ny":28,"refTime":"2025-01-25T03:00:00:Z","depth":"4","parameterNumber":2,"parameterNumberName":"U-component_of_CURRENTS"},"data":[0,0,0,0,0,0,0,0,0,0,0,0,0,0,0,0,0,0,0,0,0,0,0,0,0,0,0,0,0,0,0,0,0,0,0,0,0,0,0,0,0,0,0,0,0,0,0,0,0,0,0,0,0,0,0,0,0,0,-0.1083,-0.1083,0,-0.1103,-0.1103,-0.1103,-0.1119,-0.1119,-0.1119,-0.1119,-0.1172,-0.1173,-0.1174,0,0,0,0,0,0,0,0,0,0,0,0,0,-0.1076,-0.1076,-0.1083,-0.1083,-0.1084,-0.1103,-0.1103,-0.1103,-0.1119,-0.1119,-0.1119,-0.112,-0.1172,-0.1173,-0.1175,0,0,0,0,0,0,0,0,0,0,0,0,0,-0.1085,-0.1076,-0.1083,-0.1094,-0.1095,-0.1103,-0.1103,-0.1103,-0.1119,-0.1119,-0.1119,-0.112,-0.1171,-0.1173,-0.1175,-0.118,0,0,-0.118,-0.1181,0,0,0,0,0,0,0,0,-0.1085,-0.1085,-0.1092,-0.1093,-0.1095,-0.1109,-0.112,-0.1131,-0.1119,-0.1109,-0.1119,-0.112,-0.1154,-0.1157,-0.1159,-0.1182,-0.1185,-0.118,-0.1182,-0.1182,-0.1183,0,0,0,0,0,0,0,-0.1084,-0.1085,-0.109,-0.1093,-0.1094,-0.1104,-0.1106,-0.1122,-0.113,-0.111,-0.1111,-0.1114,-0.1155,-0.1157,-0.1161,-0.1185,-0.118,-0.1182,-0.1183,-0.1184,-0.1251,-0.1252,0,0,0,0,0,0,-0.1081,-0.1084,-0.109,-0.1091,-0.1091,-0.1104,-0.1106,-0.1104,-0.1129,-0.1133,-0.1114,-0.1115,-0.1154,-0.1159,-0.1163,-0.1214,-0.1182,-0.1184,-0.1185,-0.125,-0.1251,-0.1252,0,0,0,0,0,0,-0.1081,-0.1082,-0.1089,-0.1089,-0.1091,-0.1104,-0.1102,-0.1104,-0.1123,-0.1132,-0.1137,-0.1133,-0.1155,-0.116,-0.1186,-0.1215,-0.1185,-0.1186,-0.125,-0.1251,-0.1252,-0.1289,0,0,0,0,0,0,-0.1081,-0.1081,-0.1086,-0.1088,-0.109,-0.1103,-0.1102,-0.1104,-0.1124,-0.1126,-0.1149,-0.1153,-0.1155,-0.1183,-0.1188,-0.1217,-0.1188,-0.1249,-0.125,-0.1251,-0.1287,-0.1292,-0.1295,0,0,0,0,0,-0.108,-0.108,-0.1086,-0.1088,-0.1094,-0.1103,-0.1106,-0.1116,-0.1125,-0.1134,-0.1148,-0.1153,-0.1195,-0.1185,-0.1191,-0.1221,-0.1248,-0.125,-0.1251,-0.1286,-0.1291,-0.1295,0,0,0,0,0,0,-0.1078,-0.1082,-0.1089,-0.109,-0.1102,-0.1106,-0.1117,-0.1126,-0.1145,-0.1153,-0.1161,-0.1166,-0.1201,-0.1202,-0.1191,-0.1242,-0.1223,-0.1226,-0.1248,-0.1253,-0.1257,-0.1248,-0.1189,0,0,0,0,0,-0.1081,-0.1083,-0.1091,-0.1095,-0.1103,-0.1116,-0.1124,-0.1133,-0.1146,-0.1155,-0.117,-0.1188,-0.1209,-0.1223,-0.1237,-0.1266,-0.1253,-0.1288,-0.1292,-0.1295,-0.1291,-0.1299,-0.1303,-0.1257,-0.1257,-0.1257,0,0,-0.1079,-0.1084,-0.1084,-0.1095,-0.1107,-0.112,-0.1122,-0.114,-0.1154,-0.1158,-0.1187,-0.1205,-0.1219,-0.1249,-0.1265,-0.1256,-0.13,-0.1297,-0.13,-0.1294,-0.1301,-0.1305,-0.1309,-0.1258,-0.1258,-0.1258,0,0,-0.1074,-0.1085,-0.1087,-0.1102,-0.1124,-0.1133,-0.1143,-0.116,-0.1174,-0.1201,-0.121,-0.1241,-0.1269,-0.1284,-0.1296,-0.133,-0.1321,-0.1342,-0.1359,-0.1367,-0.1371,-0.1374,-0.1356,-0.1357,-0.1345,-0.1345,-0.1345,0,-0.1075,-0.1075,-0.109,-0.1103,-0.1114,-0.1142,-0.1151,-0.1171,-0.1195,-0.1206,-0.1215,-0.1264,-0.1285,-0.1318,-0.1335,-0.1341,-0.1332,-0.1342,-0.1372,-0.1375,-0.1378,-0.1358,-0.1359,-0.1347,-0.1347,-0.1347,-0.1346,0,-0.1066,-0.108,-0.1086,-0.1109,-0.1127,-0.1141,-0.117,-0.1193,-0.1217,-0.1234,-0.1275,-0.13,-0.1325,-0.1348,-0.1357,-0.1392,-0.1375,-0.1377,-0.136,-0.1385,-0.1362,-0.1363,-0.135,-0.1349,-0.1349,-0.1348,0,0,-0.1034,-0.1069,-0.1076,-0.1088,-0.1131,-0.114,-0.1175,-0.1202,-0.1223,-0.1262,-0.1281,-0.1338,-0.1355,-0.1368,-0.1389,-0.1407,-0.1427,-0.1405,-0.1405,-0.1385,-0.1426,-0.1281,-0.1267,-0.1438,-0.1439,-0.1439,-0.14,0,-0.1024,-0.1037,-0.1062,-0.1087,-0.1097,-0.1139,-0.1165,-0.1201,-0.1235,-0.1263,-0.1304,-0.1335,-0.1362,-0.1381,-0.1406,-0.1424,-0.1431,-0.1436,-0.1405,-0.1404,-0.1271,-0.1263,-0.1441,-0.14,-0.14,-0.14,-0.14,0,-0.1006,-0.1018,-0.103,-0.107,-0.108,-0.1105,-0.1148,-0.1173,-0.1227,-0.1253,-0.1296,-0.1326,-0.137,-0.1384,-0.1418,-0.1421,-0.1425,-0.1434,-0.1432,-0.1281,-0.1258,-0.1372,-0.14,-0.14,-0.14,-0.14,-0.14,0,-0.0959,-0.0998,-0.1003,-0.1018,-0.1067,-0.1087,-0.1116,-0.1171,-0.1189,-0.1246,-0.1265,-0.1318,-0.1335,-0.1367,-0.139,-0.141,-0.1404,-0.1429,-0.1296,-0.1285,-0.1414,-0.1411,-0.1438,-0.1438,-0.1438,-0.1438,-0.1438,0,-0.0922,-0.0935,-0.0986,-0.0989,-0.1006,-0.1056,-0.108,-0.1119,-0.1169,-0.1187,-0.1254,-0.1263,-0.1335,-0.1343,-0.1373,-0.1312,-0.1385,-0.1281,-0.1261,-0.1429,-0.1428,-0.1413,-0.141,-0.1437,-0.1437,-0.1437,-0.1437,0,-0.0866,-0.0897,-0.0911,-0.0964,-0.0983,-0.0994,-0.1051,-0.1068,-0.1124,-0.1148,-0.1164,-0.1216,-0.1208,-0.1247,-0.1275,-0.1255,-0.124,-0.12,-0.1348,-0.134,-0.1123,-0.1123,-0.1048,-0.1042,-0.1038,-0.1034,-0.103,0,-0.0833,-0.0836,-0.0885,-0.0889,-0.0915,-0.0946,-0.0966,-0.1034,-0.1054,-0.1108,-0.1108,-0.111,-0.1135,-0.1045,-0.11,-0.109,-0.1091,-0.1076,-0.1127,-0.1092,-0.1082,-0.1089,-0.1096,-0.1023,-0.1022,-0.102,-0.1019,0,-0.0774,-0.0801,-0.0807,-0.082,-0.0842,-0.0862,-0.0902,-0.091,-0.0981,-0.1039,-0.1014,-0.0997,-0.0957,-0.0954,-0.0924,-0.094,-0.1089,-0.1028,-0.1039,-0.1086,-0.1061,-0.1057,-0.1069,-0.1003,-0.1005,-0.1007,-0.1008,0,-0.0731,-0.0724,-0.0736,-0.0742,-0.0761,-0.0769,-0.0806,-0.0823,-0.0846,-0.0924,-0.0904,-0.0912,-0.0941,-0.0871,-0.0865,-0.0832,-0.0838,-0.0847,-0.0868,-0.0886,-0.0849,-0.0795,-0.062,0,0,0,0,0,-0.0685,-0.0667,-0.0659,-0.0652,-0.0669,-0.0682,-0.0753,-0.0799,-0.0877,-0.083,-0.0867,-0.083,-0.0777,-0.0778,-0.071,-0.0787,-0.0844,-0.0706,-0.0868,-0.0913,-0.0932,-0.0902,0,0,0,0,0,0,-0.0649,-0.0635,-0.0629,-0.0576,-0.0555,-0.057,-0.0615,-0.0677,-0.0662,-0.0739,-0.0708,-0.0756,-0.0711,-0.0779,-0.0677,-0.0678,-0.0761,-0.0712,-0.0709,-0.0902,-0.0919,-0.0934,-0.091,0,0,0,0,0]},{"header":{"parameterUnit":"m.s-1","parameterCategory":2,"la1":30.2991,"la2":30.254,"lo1":-89.0895,"lo2":-89.0444,"dy":0.0017,"dx":0.0017,"nx":28,"ny":28,"refTime":"2025-01-25T03:00:00:Z","depth":"4","parameterNumber":3,"parameterNumberName":"V-component_of_CURRENTS"},"data":[0,0,0,0,0,0,0,0,0,0,0,0,0,0,0,0,0,0,0,0,0,0,0,0,0,0,0,0,0,0,0,0,0,0,0,0,0,0,0,0,0,0,0,0,0,0,0,0,0,0,0,0,0,0,0,0,0,0,-0.0208,-0.0208,0,-0.0229,-0.0229,-0.0229,-0.0221,-0.022,-0.022,-0.0219,-0.0208,-0.0208,-0.0209,0,0,0,0,0,0,0,0,0,0,0,0,0,-0.0189,-0.0189,-0.0208,-0.0208,-0.0208,-0.0228,-0.0229,-0.0229,-0.0221,-0.022,-0.022,-0.0219,-0.0208,-0.0208,-0.0209,0,0,0,0,0,0,0,0,0,0,0,0,0,-0.0204,-0.019,-0.0208,-0.0205,-0.0205,-0.0228,-0.0229,-0.0229,-0.0221,-0.022,-0.0219,-0.0219,-0.0208,-0.0208,-0.0209,-0.023,0,0,-0.021,-0.021,0,0,0,0,0,0,0,0,-0.0203,-0.0204,-0.0206,-0.0206,-0.0206,-0.022,-0.0218,-0.0227,-0.0222,-0.0217,-0.0219,-0.0218,-0.0209,-0.0209,-0.0218,-0.0229,-0.0229,-0.021,-0.021,-0.021,-0.0211,0,0,0,0,0,0,0,-0.0202,-0.0204,-0.0217,-0.0206,-0.0206,-0.0213,-0.0214,-0.022,-0.0218,-0.0217,-0.0216,-0.0217,-0.0209,-0.0217,-0.0217,-0.0229,-0.021,-0.021,-0.0211,-0.0211,-0.0252,-0.0253,0,0,0,0,0,0,-0.0196,-0.0203,-0.0217,-0.0218,-0.02,-0.0214,-0.0215,-0.0217,-0.0219,-0.0218,-0.0217,-0.0216,-0.0217,-0.0217,-0.0217,-0.0244,-0.021,-0.0211,-0.0211,-0.0251,-0.0252,-0.0253,0,0,0,0,0,0,-0.0196,-0.0197,-0.0216,-0.0209,-0.0212,-0.0215,-0.0218,-0.0218,-0.0226,-0.0219,-0.0218,-0.0223,-0.0216,-0.0216,-0.023,-0.0243,-0.0211,-0.0211,-0.025,-0.0251,-0.0252,-0.0296,0,0,0,0,0,0,-0.0195,-0.0197,-0.0201,-0.0209,-0.0212,-0.0234,-0.0219,-0.0219,-0.0226,-0.0225,-0.0224,-0.0222,-0.0216,-0.023,-0.023,-0.0243,-0.0212,-0.0249,-0.025,-0.0252,-0.0294,-0.0299,-0.0303,0,0,0,0,0,-0.0194,-0.0203,-0.0201,-0.0203,-0.0216,-0.0235,-0.0238,-0.0237,-0.0228,-0.0239,-0.0239,-0.0222,-0.024,-0.0231,-0.0232,-0.0245,-0.0248,-0.025,-0.0252,-0.0292,-0.0298,-0.0303,0,0,0,0,0,0,-0.0192,-0.0203,-0.0201,-0.021,-0.0223,-0.0233,-0.0242,-0.0241,-0.0252,-0.0248,-0.0238,-0.0238,-0.0253,-0.0246,-0.0236,-0.0261,-0.0239,-0.0241,-0.0269,-0.0275,-0.028,-0.0289,-0.0212,0,0,0,0,0,-0.0194,-0.0206,-0.0215,-0.0224,-0.023,-0.0237,-0.0245,-0.0247,-0.0254,-0.0257,-0.0259,-0.0259,-0.0264,-0.0266,-0.027,-0.0288,-0.0247,-0.0295,-0.03,-0.0304,-0.0312,-0.0255,-0.0255,-0.0259,-0.0259,-0.0259,0,0,-0.0196,-0.0202,-0.0209,-0.0225,-0.0233,-0.026,-0.024,-0.0255,-0.0279,-0.0255,-0.0287,-0.0278,-0.0273,-0.0292,-0.0298,-0.0286,-0.028,-0.0306,-0.031,-0.0316,-0.0257,-0.0256,-0.0255,-0.026,-0.026,-0.026,0,0,-0.0216,-0.0211,-0.0235,-0.0249,-0.0265,-0.0273,-0.0278,-0.0295,-0.0302,-0.033,-0.0316,-0.0316,-0.0332,-0.0328,-0.0327,-0.0361,-0.0307,-0.0361,-0.0393,-0.0338,-0.0336,-0.0335,-0.0271,-0.0263,-0.0363,-0.0363,-0.0363,0,-0.0218,-0.0249,-0.0245,-0.0274,-0.0291,-0.0282,-0.0317,-0.0327,-0.0348,-0.0358,-0.0345,-0.0358,-0.0349,-0.0364,-0.0377,-0.0371,-0.0326,-0.0371,-0.0342,-0.034,-0.0337,-0.0272,-0.0263,-0.0365,-0.0365,-0.0365,-0.0365,0,-0.0265,-0.0287,-0.0301,-0.0337,-0.0354,-0.038,-0.0393,-0.0409,-0.0411,-0.0419,-0.0433,-0.0418,-0.0423,-0.0418,-0.0411,-0.04,-0.0368,-0.0352,-0.0324,-0.0339,-0.027,-0.026,-0.0369,-0.0368,-0.0367,-0.0366,0,0,-0.0277,-0.0326,-0.0333,-0.036,-0.039,-0.041,-0.0445,-0.0476,-0.0494,-0.0498,-0.0516,-0.0517,-0.0496,-0.0493,-0.0472,-0.0428,-0.0368,-0.039,-0.0385,-0.0321,-0.0232,-0.0212,-0.0198,-0.0341,-0.0339,-0.0339,-0.0186,0,-0.0319,-0.0383,-0.0399,-0.0459,-0.0492,-0.0497,-0.0531,-0.0551,-0.0557,-0.0571,-0.0543,-0.0551,-0.0528,-0.0522,-0.0479,-0.0408,-0.0345,-0.041,-0.0233,-0.0228,-0.0203,-0.0188,-0.0335,-0.0178,-0.0176,-0.0174,-0.0173,0,-0.0368,-0.0402,-0.0471,-0.052,-0.0535,-0.0569,-0.0609,-0.0636,-0.0645,-0.0644,-0.0637,-0.0615,-0.0583,-0.0541,-0.0415,-0.0456,-0.0349,-0.0275,-0.0267,-0.0228,-0.0189,-0.0163,-0.0154,-0.0155,-0.0156,-0.0158,-0.0159,0,-0.0387,-0.0453,-0.0508,-0.0527,-0.0581,-0.0612,-0.0637,-0.0661,-0.0677,-0.0685,-0.0682,-0.0649,-0.0617,-0.0504,-0.0384,-0.0386,-0.0218,-0.0195,-0.0066,-0.0062,-0.0105,-0.0109,-0.0068,-0.0068,-0.0068,-0.0069,-0.0069,0,-0.0425,-0.0471,-0.0522,-0.0552,-0.0611,-0.0636,-0.0687,-0.0706,-0.0718,-0.0723,-0.0715,-0.0693,-0.0601,-0.0509,-0.0385,-0.0208,-0.0212,-0.0065,-0.0022,-0.0127,-0.0135,-0.0097,-0.0102,-0.0063,-0.0064,-0.0066,-0.0066,0,-0.0445,-0.0481,-0.0543,-0.0603,-0.0625,-0.0664,-0.0714,-0.0738,-0.0748,-0.0748,-0.0748,-0.0713,-0.0602,-0.0495,-0.0308,-0.0202,-0.0041,0.0037,-0.0087,-0.0054,0.0088,0.0078,0.0206,0.0208,0.021,0.0211,0.0212,0,-0.0466,-0.0501,-0.0571,-0.0605,-0.0638,-0.0692,-0.0726,-0.0753,-0.0761,-0.0743,-0.073,-0.0657,-0.0613,-0.0344,-0.0239,-0.0013,0.003,0.0127,0.0109,0.0086,0.0116,0.0103,0.0092,0.0215,0.0215,0.0216,0.0216,0,-0.0501,-0.0524,-0.0566,-0.0625,-0.0673,-0.0721,-0.076,-0.0759,-0.0765,-0.0771,-0.0682,-0.0575,-0.0452,-0.0308,-0.0152,0.0016,0.0057,0.0146,0.0144,0.0128,0.0099,0.0123,0.011,0.0222,0.0221,0.0221,0.022,0,-0.0519,-0.0549,-0.0595,-0.0643,-0.0703,-0.0733,-0.0753,-0.0737,-0.0736,-0.0692,-0.0655,-0.0545,-0.0491,-0.0287,-0.0138,0.0001,0.006,0.0139,0.0139,0.0134,0.0049,-0.0002,0.0135,0,0,0,0,0,-0.053,-0.056,-0.0609,-0.0666,-0.0719,-0.0745,-0.0769,-0.0773,-0.076,-0.068,-0.066,-0.0538,-0.0326,-0.0259,-0.0108,-0.0114,0.0062,0.0071,0.0148,0.0254,0.0247,0.0159,0,0,0,0,0,0,-0.0544,-0.0587,-0.0604,-0.0668,-0.0704,-0.0759,-0.0768,-0.0757,-0.0701,-0.0666,-0.0565,-0.0484,-0.0305,-0.0425,-0.0108,-0.007,0.0012,0.016,0.0165,0.0258,0.0252,0.0246,0.0153,0,0,0,0,0]}]]